Date,TemperatureHighF,TemperatureAvgF,TemperatureLowF,DewpointHighF,DewpointAvgF,DewpointLowF,HumidityHigh,HumidityAvg,HumidityLow,PressureMaxIn,PressureMinIn,WindSpeedMaxMPH,WindSpeedAvgMPH,GustSpeedMaxMPH,PrecipitationSumIn
2013-1-1,36,24,16,21,9,3,63,54,47,30.15,29.97,8,2,13,0.00
2013-1-2,43,24,10,32,9,0,59,47,31,30.21,30.09,6,1,8,0.00
2013-1-3,40,25,10,32,9,-2,55,41,30,30.21,30.00,7,3,13,0.00
2013-1-4,47,30,19,16,7,-2,48,39,27,30.09,29.97,5,2,9,0.00
2013-1-5,48,25,14,23,7,1,66,50,33,30.18,30.00,5,1,8,0.00
2013-1-6,41,30,14,16,10,1,64,44,33,30.00,29.80,6,2,13,1.07
2013-1-7,47,32,20,21,14,5,65,49,37,29.88,29.59,4,0,5,0.00
2013-1-8,50,39,26,23,11,-11,50,36,8,29.94,29.62,10,2,17,0.00
2013-1-9,59,42,24,28,18,9,64,40,17,29.91,29.62,5,1,9,0.00
2013-1-10,56,33,7,29,18,-5,68,55,32,29.97,29.47,14,2,14,1.07
2013-1-11,21,15,9,32,10,0,69,61,53,30.03,29.62,10,2,10,0.00
2013-1-12,72,11,-1,50,26,-11,57,52,39,30.06,26.81,5,1,7,0.25
2013-1-13,27,11,4,32,25,-2,55,48,43,30.12,30.03,6,2,11,0.00
2013-1-14,25,15,8,32,14,-2,51,47,40,30.09,29.91,7,3,13,0.00
2013-1-15,34,25,19,16,10,1,64,53,47,30.03,29.88,7,4,15,0.00
2013-1-16,48,34,27,23,15,10,52,46,37,30.18,29.94,6,3,12,0.00
2013-1-17,48,34,29,21,14,10,52,42,37,30.21,29.94,7,3,11,0.00
2013-1-18,58,41,29,25,16,9,59,38,15,29.97,29.83,6,2,10,0.00
2013-1-19,49,34,21,27,18,10,78,55,40,30.18,29.91,5,1,8,0.00
2013-1-20,34,24,17,19,11,5,81,59,51,30.36,30.00,5,2,12,0.00
2013-1-21,39,27,14,32,12,1,70,51,41,30.18,26.81,5,1,8,0.00
2013-1-22,51,28,10,32,21,5,79,53,29,30.03,26.05,5,0,7,0.00
2013-1-23,30,24,21,14,10,9,63,58,51,30.09,25.34,3,2,7,0.00
2013-1-24,57,38,20,30,18,10,70,46,31,30.03,26.61,8,1,14,0.00
2013-1-25,54,34,22,32,20,12,78,58,37,30.00,29.83,3,0,6,0.00
2013-1-26,61,48,30,32,26,18,72,43,29,29.85,29.59,4,1,8,0.00
2013-1-27,37,32,26,34,28,18,88,84,67,29.83,29.62,3,0,6,0.00
2013-1-28,37,30,0,27,21,9,89,74,31,31.63,26.05,4,0,5,0.08
2013-1-29,30,23,13,32,13,-4,63,50,43,31.60,7.56,5,2,8,0.00
2013-1-30,35,28,13,32,22,14,84,67,46,32.87,7.56,6,2,8,0.00
2013-1-31,30,18,5,32,19,0,76,62,48,30.09,29.85,6,1,9,0.00